Starlink 2015

operational
NORAD ID: 47638 Int'l Des: 2021-012 Owner: SPXS Country: US Constellation: starlink
LEOCIRCULARSTARLINK_TYPE

Starlink 2015について

説明を読み込み中...

リアルタイム位置

3D地球を読み込み中...

次回通過

高度履歴

Altitude vs Time

uPlot chart will show altitude changes over time

軌道要素

1 47638U 21012U 26033.59305966 .00260330 00000-0 16433-1 0 9993
2 47638 53.0577 134.1714 0001214 107.7789 252.3333 15.07351447276008
Epoch: Feb 2, 2026 • Age: 10 hours

現在のステータス

高度 545.9 km
速度 7.59 km/s
衛星直下点 35.04°N, 31.05°E
打ち上げ日 Feb 16, 2021
運用期間 4.9 years
タイプ internet

技術仕様

分類 Payload
質量 260.00 kg
乾燥質量 248.00 kg
総質量 260.00 kg
長さ 0.20 m
直径 2.80 m
スパン 9.00 m
形状 Box + pan
製造者 SPXS
バスタイプ Starlink
フェーズステータス In Orbit
所有者/国 SPXS/US

大規模コンステレーション

Loading constellations...